Location: Newark
(11.2914°S, 14.4718°E)
Time: 16:18:21
(UTC+00:00)

Vanguard 2 - Pass Details

Date: 25 September 2019
Orbit: 554 x 2937 km, 32.9° (Epoch: 18 October)

Event Time Altitude Azimuth Distance (km) Brightness Sun altitude
Rises 21:54:48 0° 256° (WSW) 6,128 12.4 -70.9°
Reaches altitude 10° 21:59:05 10° 264° (W) 5,361 11.9 -71.7°
Enters shadow 22:02:26 18° 272° (W) 4,842 11.6 -72.3°
